[Date Prev][Date Next][Thread Prev][Thread Next] - [Date Index][Thread Index][Author Index]

2 Line ISS Keps 3-3



ISS
1 25544U 98067A   04063.37165263 -.00030113  00000-0 -27892-3 0  3036
2 25544  51.6282 144.5672 0011316 233.9067 224.1368 15.66382121301710


----
Via the sarex mailing list at AMSAT.ORG courtesy of AMSAT-NA.
To unsubscribe, send "unsubscribe sarex" to Majordomo@amsat.org



AMSAT Top AMSAT Home